Find Starlink 36936

NORAD ID: 68012 Int'l Des: 2026-039 Owner: SPXS Country: US Constellation: starlink operational
LEOCIRCULAR

实时位置

正在加载3D地球...

关于 Starlink 36936

正在加载描述...

即将过境

Passes for default location (London). Set your location on the main map for personalized predictions.

高度历史

Loading altitude history...

两行轨道根数

1 68012U 26039AC 26105.93653078 .00019530 00000-0 71688-3 0 9993
2 68012 42.9976 198.2347 0003130 285.0373 75.0133 15.27598711 7401
Epoch: Apr 15, 2026 • Age: 18 hours

当前状态

高度 486.4 km
速度 7.63 km/s
星下点 37.79°N, 164.87°E
发射日期 Feb 27, 2026
运行时间 0.1 years
类型 internet

技术详情

分类 Payload
质量 575.00 kg
干质量 530.00 kg
总质量 575.00 kg
长度 0.30 m
直径 4.10 m
跨度 29.00 m
形状 Box + pan
制造商 SPXS
平台类型 Starlink V2MO
阶段状态 In Orbit
所有者/国家 SPXS/US

Most Searched